Regional Weather Roundup
Issued by NWS

Home | Current Version | Previous Version | Graphics & Text | Print | Product List | Glossary On
Versions: 1 2 3 4 5 6 7 8 9 10 11 12 13 14 15 16 17 18 19 20 21 22 23 24 25 26 27 28 29 30 31 32 33 34 35 36 37 38 39 40 41 42 43 44 45 46 47 48 49 50
000
ASUS43 KFSD 180502
RWRSD

WEATHER ROUNDUP FOR SOUTH DAKOTA
NATIONAL WEATHER SERVICE SIOUX FALLS SD
1100 PM CST SAT FEB 17 2018

NOTE: "FAIR" INDICATES FEW OR NO CLOUDS BELOW 12,000 FEET WITH NO
SIGNIFICANT WEATHER AND/OR OBSTRUCTIONS TO VISIBILITY.


SDZ001>005-009-010-012>017-180600-
NORTHWEST AND NORTH CENTRAL SOUTH DAKOTA

CITY           SKY/WX    TMP DP  RH WIND       PRES   REMARKS
BUFFALO          N/A     18   7  62 E17       29.56F WCI   3
FAITH            N/A     16  13  88 E13       29.71F WCI   2
MOBRIDGE       CLOUDY    19  12  74 SE5       29.84F WCI  12
$$

SDZ012>016-024>037-041>051-057-063-072>074-180600-
SOUTHWEST AND SOUTH CENTRAL SOUTH DAKOTA

CITY           SKY/WX    TMP DP  RH WIND       PRES   REMARKS
RAPID CTY ARPT CLOUDY    23  21  92 E3        29.60F
PIERRE         CLOUDY    22  19  89 E14       29.81F WCI   9
CUSTER         CLOUDY    34  13  41 SW10G17   29.57F WCI  26
ELLSWORTH AFB  CLOUDY    24  23  99 SE13      29.58F WCI  12
PHILIP         CLOUDY    26  21  81 E18       29.69F WCI  13
PINE RIDGE     CLOUDY    41  22  46 S26G36    29.63F
SPEARFISH        N/A     19  18  93 CALM      29.53F
WINNER         MOCLDY    33  25  72 SE21      29.82F WCI  21
$$

SDZ004>011-016>023-039-040-180600-
NORTHEAST SOUTH DAKOTA

CITY           SKY/WX    TMP DP  RH WIND       PRES   REMARKS
ABERDEEN       MOCLDY    18  13  80 SE3       29.96F
WATERTOWN      CLOUDY    17  14  88 SE6       29.94F WCI   9
BROOKINGS      CLOUDY    20  17  88 SE7       29.97  WCI  11
SISSETON         N/A     14   7  73 S3        29.97F
$$

SDZ017-020-022-023-036>040-048>070-180600-
SOUTHEAST SOUTH DAKOTA

CITY           SKY/WX    TMP DP  RH WIND       PRES   REMARKS
SIOUX FALLS    CLOUDY    19  16  88 SW6       30.04R WCI  11
HURON          CLOUDY    23  20  88 SE6       29.97F WCI  16
CHAMBERLAIN    CLOUDY    29  27  92 E14       29.88F WCI  18
MITCHELL       CLOUDY    24  20  84 SE10      29.99F WCI  14
YANKTON        CLOUDY    25  23  92 E5        30.02F WCI  19
$$

ABBREVIATIONS USED IN REMARKS
   TC - TEMPERATURE IN CELSIUS
  WCI - WIND CHILL INDEX
   HX - HEAT INDEX
  VSB - VISIBILITY




USA.gov is the U.S. government's official web portal to all federal, state and local government web resources and services.